Location: Unspecified
(0.0000°N, 0.0000°E)
Time: 07:49:19
(UTC+00:00)

Tiros 1 despin weight - Pass Details

Date: 03 October 2023
Orbit: 583 x 627 km, 48.2° (Epoch: 05 December)

Event Time Altitude Azimuth Distance (km) Brightness Sun altitude
Rises 03:09:11 0° 325° (NW) 2,782 - -39.9°
Reaches altitude 10° 03:11:27 10° 327° (NNW) 1,886 - -39.3°
Maximum altitude 03:15:44 70° 51° (NE) 617 - -38.3°
Drops below altitude 10° 03:20:04 10° 135° (SE) 1,904 - -37.2°
Exits shadow 03:20:24 - 135° (SE) 2,034 ? -37.1°
Sets 03:22:22 0° 137° (SE) 2,812 ? -36.6°
